Regional Weather Roundup
Issued by NWS

Home | Current Version | Previous Version | Text Only | Print | Product List | Glossary Off
Versions: 1 2 3 4 5 6 7 8 9 10 11 12 13 14 15 16 17 18 19 20 21 22 23 24 25 26 27 28 29 30 31 32 33 34 35 36 37 38 39 40 41 42 43 44 45 46 47 48 49 50

000
ASUS43 KLMK 290810
RWRKY
KENTUCKY REGIONAL WEATHER ROUNDUP
NATIONAL WEATHER SERVICE LOUISVILLE KY
400 AM EDT FRI MAY 29 2015

NOTE "FAIR" INDICATES FEW OR NO CLOUDS BELOW 12,000 FEET
WITH NO SIGNIFICANT WEATHER AND/OR OBSTRUCTIONS TO VISIBILITY.

KYZ001>023-026-027-061>063-070>075-290900-
WESTERN AND SOUTH CENTRAL KENTUCKY

CITY           SKY/WX    TMP DP  RH WIND       PRES   REMARKS
PADUCAH        CLEAR     69  65  86 CALM      30.04F
HENDERSON      CLEAR     70  63  78 SE6       30.05F
OWENSBORO      CLEAR     69  66  90 SE7       30.08S
HOPKINSVILLE   CLEAR     69  66  89 S6        30.07F
BOWLING GREEN  CLEAR     69  64  84 S3        30.11S
GLASGOW        CLEAR     67  65  95 CALM      30.13R
$$

KYZ024-025-028>034-038-045-046-053-290900-
NORTH CENTRAL KENTUCKY

CITY           SKY/WX    TMP DP  RH WIND       PRES   REMARKS
LOUISVILLE/SDF PTCLDY    68  63  84 SE5       30.11R
LOUISVILLE/LOU CLEAR     67  63  87 SE3       30.12R
FORT KNOX      CLEAR     64  62  94 SE3       30.10R
$$

KYZ035>037-039>044-047>052-055>060-089>105-290900-
NORTHEAST KENTUCKY

CITY           SKY/WX    TMP DP  RH WIND       PRES   REMARKS
LEXINGTON      PTCLDY    66  65  96 CALM      30.14R
COVINGTON      LGT RAIN  68  66  93 NE5       30.13F FOG
FRANKFORT      PTCLDY    66  64  93 CALM      30.12R
$$

KYZ054-064>069-076>088-106>120-290900-
SOUTHEAST KENTUCKY

CITY           SKY/WX    TMP DP  RH WIND       PRES   REMARKS
JACKSON        PTCLDY    67  63  87 CALM      30.16S
LONDON         FOG       65  61  87 CALM      30.15F VSB 1/4
SOMERSET       MOCLDY    63  63 100 CALM      30.16R FOG
MIDDLESBORO    CLOUDY    65  65  99 CALM      30.16F
MONTICELLO     MOSUNNY   63  63 100 CALM      30.17S
$$



USA.gov is the U.S. government's official web portal to all federal, state and local government web resources and services.